Date String (YYYY-MM-DD hh:mm:ss) UTC,Instrument flags,Ambient pressure (hPa),Sample flow (lpm),Bypass flow (lpm),Sample temperature (°C),Ambient temperature (°C),ASC tube jacket temperature (°C),LED temperature (°C),Box temperature (°C),Sample RH (%),Span deviation,Mass concentration (μg/m³),Mass concentration (μg/m³),Mass concentration (μg/m³)
DateTimeUTC,F1_M11,P_M11,Q1_M11,Q2_M11,T1_M11,T2_M11,T3_M11,T4_M11,T5_M11,U1_M11,ZSPAN_M11,X0_M11,X2_M11,X1_M11
2021-10-22 01:00:00,,0830.9,4.99,0.00,29.2,28.4,00.0,38.2,30.9,09.7,0000.0,0016.21,0004.22,0002.79
2021-10-22 01:01:00,,0830.9,4.99,0.00,29.2,28.4,00.0,38.2,30.9,09.7,0000.0,0015.81,0004.20,0002.78
2021-10-22 01:02:00,,0830.9,5.00,0.00,29.1,28.4,00.0,38.2,30.9,09.7,0000.0,0017.15,0004.20,0002.78
2021-10-22 01:03:00,,0830.9,5.00,0.00,29.1,28.4,00.0,38.2,30.9,09.8,0000.0,0017.24,0004.22,0002.78
2021-10-22 01:04:00,,0830.9,4.99,0.00,29.1,28.4,00.0,38.2,30.9,09.9,0000.0,0016.09,0004.21,0002.78
2021-10-22 01:05:00,,0830.9,5.00,0.00,29.1,28.3,00.0,38.2,30.9,09.9,0000.0,0016.11,0004.20,0002.82
2021-10-22 01:06:00,,0831.0,5.01,0.00,29.1,28.3,00.0,38.2,30.9,09.9,0000.0,0015.40,0004.17,0002.84
2021-10-22 01:07:00,,0831.0,4.99,0.00,29.1,28.3,00.0,38.2,30.9,09.8,0000.0,0016.13,0004.19,0002.88
2021-10-22 01:08:00,,0831.0,4.99,0.00,29.1,28.3,00.0,38.2,30.8,09.8,0000.0,0016.65,0004.26,0002.90
2021-10-22 01:09:00,,0831.0,4.99,0.00,29.1,28.3,00.0,38.2,30.8,09.8,0000.0,0017.04,0004.32,0002.91
2021-10-22 01:10:00,,0831.1,5.00,0.00,29.1,28.3,00.0,38.2,30.8,09.8,0000.0,0018.96,0004.31,0002.90
2021-10-22 01:11:00,,0831.0,4.99,0.00,29.1,28.3,00.0,38.2,30.8,09.8,0000.0,0019.41,0004.32,0002.90
2021-10-22 01:12:00,,0831.1,5.01,0.00,29.1,28.3,00.0,38.2,30.8,09.8,0000.0,0019.37,0004.28,0002.92
2021-10-22 01:13:00,,0831.0,4.99,0.00,29.1,28.3,00.0,38.2,30.8,09.8,0000.0,0017.89,0004.30,0002.95
2021-10-22 01:14:00,,0831.0,5.00,0.00,29.1,28.3,00.0,38.2,30.8,09.8,0000.0,0017.79,0004.28,0002.95
2021-10-22 01:15:00,,0831.0,5.00,0.00,29.1,28.3,00.0,38.2,30.8,09.8,0000.0,0017.52,0004.21,0002.92
2021-10-22 01:16:00,,0831.1,5.00,0.00,29.1,28.3,00.0,38.2,30.9,09.9,0000.0,0016.33,0004.19,0002.88
2021-10-22 01:17:00,,0831.1,5.00,0.00,29.1,28.3,00.0,38.2,30.8,09.8,0000.0,0017.24,0004.22,0002.87
2021-10-22 01:18:00,,0831.1,5.00,0.00,29.1,28.3,00.0,38.2,30.8,09.8,0000.0,0017.41,0004.24,0002.86
2021-10-22 01:19:00,,0831.1,4.99,0.00,29.1,28.3,00.0,38.2,30.8,09.8,0000.0,0017.22,0004.20,0002.87
2021-10-22 01:20:00,,0831.1,5.01,0.00,29.1,28.3,00.0,38.2,30.8,09.8,0000.0,0017.51,0004.15,0002.88
2021-10-22 01:21:00,,0831.0,5.00,0.00,29.1,28.3,00.0,38.2,30.8,09.8,0000.0,0016.07,0004.16,0002.89
2021-10-22 01:22:00,,0831.0,5.00,0.00,29.1,28.3,00.0,38.1,30.8,09.8,0000.0,0015.72,0004.12,0002.87
2021-10-22 01:23:00,,0831.1,5.00,0.00,29.0,28.3,00.0,38.1,30.8,09.8,0000.0,0015.84,0004.09,0002.85
2021-10-22 01:24:00,,0831.0,4.99,0.00,29.0,28.3,00.0,38.1,30.8,09.8,0000.0,0015.83,0004.06,0002.83
2021-10-22 01:25:00,,0831.1,4.99,0.00,29.0,28.3,00.0,38.1,30.8,09.7,0000.0,0015.67,0004.07,0002.84
2021-10-22 01:26:00,,0831.0,5.00,0.00,29.0,28.3,00.0,38.1,30.8,09.7,0000.0,0016.89,0004.13,0002.85
2021-10-22 01:27:00,,0831.0,5.01,0.00,29.0,28.3,00.0,38.1,30.8,09.7,0000.0,0017.21,0004.24,0002.89
2021-10-22 01:28:00,,0831.0,5.00,0.00,29.0,28.3,00.0,38.1,30.7,09.7,0000.0,0016.98,0004.27,0002.89
2021-10-22 01:29:00,,0831.0,4.99,0.00,29.0,28.3,00.0,38.1,30.8,09.7,0000.0,0015.57,0004.26,0002.89
2021-10-22 01:30:00,,0831.0,5.00,0.00,29.0,28.3,00.0,38.1,30.7,09.7,0000.0,0015.93,0004.25,0002.88
2021-10-22 01:31:00,,0831.0,4.98,0.00,29.0,28.3,00.0,38.1,30.7,09.7,0000.0,0015.88,0004.26,0002.87
2021-10-22 01:32:00,,0831.0,5.00,0.00,29.0,28.2,00.0,38.1,30.8,09.6,0000.0,0015.22,0004.19,0002.86
2021-10-22 01:33:00,,0831.1,4.99,0.00,29.0,28.2,00.0,38.1,30.7,09.6,0000.0,0015.45,0004.21,0002.86
2021-10-22 01:34:00,,0831.1,4.99,0.00,29.0,28.2,00.0,38.1,30.7,09.6,0000.0,0015.88,0004.29,0002.89
2021-10-22 01:35:00,,0831.1,5.00,0.00,29.0,28.2,00.0,38.1,30.7,09.6,0000.0,0016.77,0004.37,0002.91
2021-10-22 01:36:00,,0831.1,5.01,0.00,29.0,28.2,00.0,38.1,30.7,09.6,0000.0,0017.37,0004.37,0002.94
2021-10-22 01:37:00,,0831.1,5.00,0.00,29.0,28.2,00.0,38.1,30.7,09.6,0000.0,0016.56,0004.37,0002.95
2021-10-22 01:38:00,,0831.0,4.99,0.00,29.0,28.2,00.0,38.1,30.7,09.6,0000.0,0016.76,0004.31,0002.96
2021-10-22 01:39:00,,0831.1,5.02,0.00,29.0,28.2,00.0,38.1,30.7,09.7,0000.0,0017.15,0004.30,0002.96
2021-10-22 01:40:00,,0831.0,4.98,0.00,29.0,28.2,00.0,38.1,30.7,09.8,0000.0,0017.24,0004.32,0002.99
2021-10-22 01:41:00,,0831.1,5.00,0.00,29.0,28.2,00.0,38.1,30.7,09.8,0000.0,0016.52,0004.32,0003.04
2021-10-22 01:42:00,,0831.0,4.99,0.00,29.0,28.2,00.0,38.1,30.7,09.9,0000.0,0016.18,0004.37,0003.08
2021-10-22 01:43:00,,0831.0,5.01,0.00,29.0,28.2,00.0,38.1,30.7,09.9,0000.0,0017.35,0004.45,0003.13
2021-10-22 01:44:00,,0831.0,5.00,0.00,29.0,28.2,00.0,38.1,30.7,10.0,0000.0,0018.10,0004.50,0003.15
2021-10-22 01:45:00,,0831.0,5.00,0.00,29.0,28.2,00.0,38.1,30.7,10.0,0000.0,0018.15,0004.57,0003.19
2021-10-22 01:46:00,,0831.0,5.00,0.00,28.9,28.2,00.0,38.1,30.7,10.0,0000.0,0018.64,0004.59,0003.25
2021-10-22 01:47:00,,0831.0,5.00,0.00,28.9,28.1,00.0,38.1,30.7,10.0,0000.0,0018.55,0004.61,0003.29
2021-10-22 01:48:00,,0831.0,5.01,0.00,28.9,28.1,00.0,38.1,30.7,09.9,0000.0,0018.45,0004.64,0003.34
2021-10-22 01:49:00,,0831.1,4.99,0.00,28.9,28.1,00.0,38.1,30.7,09.9,0000.0,0018.46,0004.65,0003.36
2021-10-22 01:50:00,,0831.0,5.01,0.00,28.9,28.1,00.0,38.1,30.6,09.9,0000.0,0018.59,0004.67,0003.41
2021-10-22 01:51:00,,0831.0,5.00,0.00,28.9,28.1,00.0,38.1,30.6,10.0,0000.0,0018.95,0004.65,0003.44
2021-10-22 01:52:00,,0831.0,4.99,0.00,28.9,28.1,00.0,38.1,30.6,10.0,0000.0,0019.54,0004.76,0003.46
2021-10-22 01:53:00,,0831.0,5.01,0.00,28.9,28.1,00.0,38.0,30.6,10.0,0000.0,0019.92,0004.80,0003.50
2021-10-22 01:54:00,,0831.0,5.00,0.00,28.9,28.1,00.0,38.0,30.6,10.0,0000.0,0019.21,0004.82,0003.52
2021-10-22 01:55:00,,0831.0,4.99,0.00,28.9,28.1,00.0,38.0,30.7,10.0,0000.0,0019.13,0004.82,0003.56
2021-10-22 01:56:00,,0831.0,5.01,0.00,28.9,28.1,00.0,38.0,30.7,10.0,0000.0,0018.44,0004.82,0003.58
2021-10-22 01:57:00,,0831.0,4.99,0.00,28.9,28.1,00.0,38.0,30.6,10.1,0000.0,0017.55,0004.83,0003.58
2021-10-22 01:58:00,,0831.0,5.00,0.00,28.9,28.1,00.0,38.0,30.6,10.1,0000.0,0016.06,0004.87,0003.57
2021-10-22 01:59:00,,0831.0,5.01,0.00,28.9,28.1,00.0,38.0,30.6,10.0,0000.0,0016.24,0004.92,0003.55
